Weather History for Sanford, ME

Change the Weather History Date:

Saturday, March 15, 2014

  Actual Average Record
Temperature  
Mean Temperature 42 °F -  
Max Temperature 50 °F 37 °F 53 °F (2009)
Min Temperature 33 °F 20 °F 15 °F (2013)
Degree Days  
Heating Degree Days 24    
Moisture  
Dew Point 24 °F    
Average Humidity 54    
Maximum Humidity 81    
Minimum Humidity 40    
Precipitation  
Precipitation 0.00 in - - ()
Sea Level Pressure  
Sea Level Pressure 29.71 in    
Wind  
Wind Speed 7 mph (SW)    
Max Wind Speed 26 mph    
Max Gust Speed 36 mph    
Visibility 10 miles    
Events      
Averages and records for this station are not official NWS values.
T = Trace of Precipitation, MM = Missing Value Source: NWS Daily Summary

Daily Weather History Graph

Daily Weather History Graph

Search for Another Location

Airport:

Trip Planner

Search our weather history database for the weather conditions in past years. The results will help you decide how hot, cold, wet, or windy it might be!

Date:

Astronomy

Mar. 15, 2014 Rise Set
Actual Time 6:55 AM EDT 6:49 PM EDT
Civil Twilight 6:26 AM EDT 7:17 PM EDT
Nautical Twilight 5:53 AM EDT 7:50 PM EDT
Astronomical Twilight 5:19 AM EDT 8:24 PM EDT
Moon 6:05 PM EDT (3/15) 6:06 AM EDT (3/15)
Length of Visible Light 12h 50m
Length of Day
11h 54m
Waxing Gibbous, 99% of the Moon is Illuminated
Mar 15
Waxing Gibbous
Mar 16
Full
Mar 23
Last Quarter
Mar 30
New
Apr 7
First Quarter

Hourly Weather History & Observations

Time (EDT) Temp. Windchill Dew Point Humidity Pressure Visibility Wind Dir Wind Speed Gust Speed Precip Events Conditions
12:15 AM 33.8 °F 28.6 °F 17.6 °F 52% 29.85 in 10.0 mi SSW 5.8 mph - N/A   Mostly Cloudy
12:35 AM 33.8 °F 28.6 °F 17.6 °F 52% 29.84 in 10.0 mi SSW 5.8 mph - N/A   Mostly Cloudy
12:55 AM 33.8 °F 29.6 °F 14.0 °F 44% 29.84 in 10.0 mi SSW 4.6 mph - N/A   Mostly Cloudy
1:15 AM 33.8 °F 29.6 °F 17.6 °F 52% 29.83 in 10.0 mi SSW 4.6 mph - N/A   Mostly Cloudy
1:35 AM 33.8 °F 29.6 °F 19.4 °F 56% 29.82 in 10.0 mi SW 4.6 mph - N/A   Overcast
1:55 AM 33.8 °F 29.6 °F 17.6 °F 52% 29.81 in 10.0 mi SSW 4.6 mph - N/A   Mostly Cloudy
2:15 AM 33.8 °F 29.6 °F 17.6 °F 52% 29.81 in 10.0 mi SW 4.6 mph - N/A   Mostly Cloudy
2:35 AM 33.8 °F 29.6 °F 17.6 °F 52% 29.79 in 10.0 mi South 4.6 mph - N/A   Mostly Cloudy
2:55 AM 33.8 °F 30.8 °F 21.2 °F 60% 29.78 in 10.0 mi South 3.5 mph - N/A   Partly Cloudy
3:15 AM 33.8 °F - 19.4 °F 56% 29.77 in 10.0 mi Calm Calm - N/A   Mostly Cloudy
3:35 AM 33.8 °F 29.6 °F 19.4 °F 56% 29.75 in 10.0 mi SSW 4.6 mph - N/A   Partly Cloudy
3:55 AM 33.8 °F 30.8 °F 21.2 °F 60% 29.75 in 10.0 mi SW 3.5 mph - N/A   Clear
4:15 AM 33.8 °F - 21.2 °F 60% 29.74 in 10.0 mi Calm Calm - N/A   Partly Cloudy
4:35 AM 33.8 °F - 23.0 °F 65% 29.73 in 10.0 mi Calm Calm - N/A   Partly Cloudy
4:55 AM 33.8 °F - 21.2 °F 60% 29.72 in 10.0 mi Calm Calm - N/A   Mostly Cloudy
5:15 AM 33.8 °F 30.8 °F 21.2 °F 60% 29.72 in 10.0 mi SSW 3.5 mph - N/A   Mostly Cloudy
5:35 AM 35.6 °F 32.8 °F 23.0 °F 60% 29.71 in 10.0 mi SSW 3.5 mph - N/A   Scattered Clouds
5:55 AM 35.6 °F 32.8 °F 23.0 °F 60% 29.71 in 10.0 mi SSW 3.5 mph - N/A   Mostly Cloudy
6:15 AM 35.6 °F 30.7 °F 24.8 °F 65% 29.70 in 10.0 mi SSW 5.8 mph - N/A   Overcast
6:35 AM 35.6 °F 30.7 °F 24.8 °F 65% 29.69 in 10.0 mi SSW 5.8 mph - N/A   Overcast
6:55 AM 35.6 °F 28.6 °F 24.8 °F 65% 29.69 in 10.0 mi SSW 9.2 mph - N/A   Overcast
7:15 AM 37.4 °F 32.8 °F 26.6 °F 65% 29.69 in 10.0 mi SSW 5.8 mph - N/A   Overcast
7:35 AM 35.6 °F 30.7 °F 26.6 °F 70% 29.69 in 10.0 mi SW 5.8 mph - N/A   Overcast
7:55 AM 35.6 °F 30.7 °F 30.2 °F 81% 29.69 in 10.0 mi SSW 5.8 mph - N/A   Overcast
8:15 AM 37.4 °F 32.1 °F 26.6 °F 65% 29.68 in 10.0 mi SSW 6.9 mph - N/A   Mostly Cloudy
8:35 AM 37.4 °F 32.8 °F 26.6 °F 65% 29.67 in 10.0 mi South 5.8 mph - N/A   Scattered Clouds
8:55 AM 37.4 °F 33.8 °F 28.4 °F 70% 29.68 in 10.0 mi West 4.6 mph - N/A   Partly Cloudy
9:15 AM 37.4 °F 32.1 °F 26.6 °F 65% 29.67 in 10.0 mi SSW 6.9 mph - N/A   Scattered Clouds
9:35 AM 39.2 °F 33.6 °F 30.2 °F 70% 29.67 in 10.0 mi SSW 8.1 mph - N/A   Overcast
9:55 AM 41.0 °F 35.2 °F 30.2 °F 65% 29.66 in 10.0 mi SSW 9.2 mph - N/A   Scattered Clouds
10:15 AM 41.0 °F 35.2 °F 26.6 °F 57% 29.66 in 10.0 mi SSW 9.2 mph 16.1 mph N/A   Clear
10:35 AM 42.8 °F 38.0 °F 28.4 °F 57% 29.66 in 10.0 mi SW 8.1 mph - N/A   Clear
10:55 AM 42.8 °F 38.6 °F 30.2 °F 61% 29.66 in 10.0 mi SSW 6.9 mph - N/A   Partly Cloudy
11:15 AM 42.8 °F 38.6 °F 30.2 °F 61% 29.65 in 10.0 mi SW 6.9 mph - N/A   Clear
11:35 AM 44.6 °F 40.7 °F 30.2 °F 57% 29.65 in 10.0 mi SSW 6.9 mph - N/A   Partly Cloudy
11:55 AM 44.6 °F 40.7 °F 30.2 °F 57% 29.64 in 10.0 mi SW 6.9 mph - N/A   Partly Cloudy
12:15 PM 48.2 °F - 28.4 °F 46% 29.64 in 10.0 mi WSW 12.7 mph 17.3 mph N/A   Clear
12:35 PM 48.2 °F - 28.4 °F 46% 29.64 in 10.0 mi SW 8.1 mph 17.3 mph N/A   Clear
12:55 PM 48.2 °F - 28.4 °F 46% 29.64 in 10.0 mi SSW 10.4 mph - N/A   Clear
1:15 PM 50.0 °F - 26.6 °F 40% 29.63 in 10.0 mi SSW 10.4 mph - N/A   Scattered Clouds
1:35 PM 50.0 °F - 26.6 °F 40% 29.63 in 10.0 mi WSW 10.4 mph 17.3 mph N/A   Mostly Cloudy
1:55 PM 50.0 °F - 26.6 °F 40% 29.62 in 10.0 mi West 13.8 mph 17.3 mph N/A   Overcast
2:15 PM 48.2 °F - 26.6 °F 43% 29.62 in 10.0 mi West 8.1 mph 23.0 mph N/A   Overcast
2:35 PM 48.2 °F - 28.4 °F 46% 29.62 in 10.0 mi WSW 6.9 mph - N/A   Mostly Cloudy
2:55 PM 50.0 °F - 26.6 °F 40% 29.62 in 10.0 mi West 12.7 mph 17.3 mph N/A   Overcast
3:15 PM 48.2 °F - 26.6 °F 43% 29.63 in 10.0 mi West 26.5 mph 35.7 mph N/A   Overcast
3:35 PM 44.6 °F 38.1 °F 30.2 °F 57% 29.65 in 10.0 mi West 13.8 mph 24.2 mph N/A   Mostly Cloudy
3:55 PM 44.6 °F 38.1 °F 28.4 °F 53% 29.65 in 10.0 mi WSW 13.8 mph 20.7 mph N/A   Overcast
4:15 PM 44.6 °F 37.8 °F 28.4 °F 53% 29.64 in 10.0 mi WSW 15.0 mph 20.7 mph N/A   Mostly Cloudy
4:35 PM 46.4 °F 40.4 °F 28.4 °F 50% 29.63 in 10.0 mi West 13.8 mph 19.6 mph N/A   Scattered Clouds
4:55 PM 46.4 °F 40.4 °F 26.6 °F 46% 29.64 in 10.0 mi West 13.8 mph 24.2 mph N/A   Mostly Cloudy
5:15 PM 46.4 °F 38.3 °F 26.6 °F 46% 29.64 in 10.0 mi WSW 23.0 mph 33.4 mph N/A   Scattered Clouds
5:35 PM 46.4 °F 38.7 °F 24.8 °F 43% 29.66 in 10.0 mi West 20.7 mph 27.6 mph N/A   Partly Cloudy
5:55 PM 44.6 °F 37.2 °F 24.8 °F 46% 29.67 in 10.0 mi West 17.3 mph 27.6 mph N/A   Partly Cloudy
6:15 PM 44.6 °F 37.4 °F 24.8 °F 46% 29.68 in 10.0 mi West 16.1 mph 26.5 mph N/A   Clear
6:35 PM 44.6 °F 37.2 °F 24.8 °F 46% 29.69 in 10.0 mi West 17.3 mph 24.2 mph N/A   Clear
6:55 PM 44.6 °F 36.9 °F 24.8 °F 46% 29.70 in 10.0 mi West 18.4 mph 31.1 mph N/A   Clear
7:15 PM 42.8 °F 35.4 °F 24.8 °F 49% 29.72 in 10.0 mi West 15.0 mph 27.6 mph N/A   Clear
7:35 PM 42.8 °F 36.2 °F 26.6 °F 53% 29.72 in 10.0 mi West 12.7 mph 21.9 mph N/A   Clear
7:55 PM 42.8 °F 35.4 °F 24.8 °F 49% 29.73 in 10.0 mi West 15.0 mph 19.6 mph N/A   Clear
8:15 PM 42.8 °F 35.4 °F 23.0 °F 46% 29.74 in 10.0 mi West 15.0 mph 23.0 mph N/A   Mostly Cloudy
8:35 PM 42.8 °F 36.2 °F 24.8 °F 49% 29.75 in 10.0 mi WSW 12.7 mph - N/A   Partly Cloudy
8:55 PM 41.0 °F 33.5 °F 24.8 °F 53% 29.76 in 10.0 mi WSW 13.8 mph - N/A   Clear
9:15 PM 41.0 °F 35.2 °F 24.8 °F 53% 29.76 in 10.0 mi WSW 9.2 mph 16.1 mph N/A   Clear
9:35 PM 39.2 °F 33.6 °F 24.8 °F 56% 29.77 in 10.0 mi WSW 8.1 mph - N/A   Clear
9:55 PM 39.2 °F 33.0 °F 23.0 °F 52% 29.77 in 10.0 mi West 9.2 mph - N/A   Clear
10:15 PM 37.4 °F 32.1 °F 23.0 °F 56% 29.77 in 10.0 mi WSW 6.9 mph - N/A   Partly Cloudy
10:35 PM 37.4 °F 31.4 °F 21.2 °F 52% 29.78 in 10.0 mi WSW 8.1 mph - N/A   Partly Cloudy
10:55 PM 35.6 °F 28.6 °F 21.2 °F 56% 29.78 in 10.0 mi SW 9.2 mph - N/A   Partly Cloudy
11:15 PM 37.4 °F 27.8 °F 19.4 °F 48% 29.77 in 10.0 mi WSW 17.3 mph 27.6 mph N/A   Clear
11:35 PM 37.4 °F 28.2 °F 15.8 °F 41% 29.77 in 10.0 mi West 16.1 mph 24.2 mph N/A   Clear
11:55 PM 37.4 °F 28.2 °F 15.8 °F 41% 29.78 in 10.0 mi West 16.1 mph 21.9 mph N/A   Clear